| time (UTC) | temp F | wind direction | speed MPH | gust MPH | rain 1hr in | rain 24hr in | rain mn in | humidity % | barometer mb |
| 20260508234510 | 55 | 93 | 0.0 | 0.0 | 0.00 | 0.00 | 0.00 | 46 | 1025.7 |
| 20260508233009 | 56 | 93 | 0.0 | 0.0 | 0.00 | 0.00 | 0.00 | 43 | 1025.7 |
| 20260508231513 | 57 | 50 | 0.0 | 0.0 | 0.00 | 0.00 | 0.00 | 41 | 1025.7 |
| 20260508230007 | 57 | 50 | 0.0 | 0.0 | 0.00 | 0.00 | 0.00 | 40 | 1025.7 |
| 20260508224506 | 58 | 50 | 0.0 | 0.0 | 0.00 | 0.00 | 0.00 | 39 | 1025.7 |
| 20260508223017 | 58 | 50 | 0.0 | 0.0 | 0.00 | 0.00 | 0.00 | 40 | 1025.7 |
| 20260508221506 | 58 | 50 | 0.0 | 0.0 | 0.00 | 0.00 | 0.00 | 39 | 1025.7 |
| 20260508220008 | 59 | 50 | 0.0 | 0.0 | 0.00 | 0.00 | 0.00 | 39 | 1025.7 |
| 20260508214507 | 59 | 50 | 0.0 | 4.0 | 0.00 | 0.00 | 0.00 | 37 | 1025.7 |
| 20260508213004 | 60 | 49 | 1.0 | 6.0 | 0.00 | 0.00 | 0.00 | 38 | 1025.7 |
| 20260508211507 | 60 | 70 | 0.0 | 6.0 | 0.00 | 0.00 | 0.00 | 37 | 1025.7 |
| 20260508210003 | 60 | 279 | 1.0 | 8.0 | 0.00 | 0.00 | 0.00 | 36 | 1025.7 |
| 20260508204503 | 60 | 160 | 1.0 | 7.0 | 0.00 | 0.00 | 0.00 | 37 | 1025.7 |
| 20260508203002 | 60 | 71 | 3.0 | 7.0 | 0.00 | 0.00 | 0.00 | 38 | 1025.7 |
| 20260508201602 | 60 | 74 | 0.0 | 5.0 | 0.00 | 0.00 | 0.00 | 37 | 1025.7 |
| 20260508200103 | 61 | 10 | 0.0 | 5.0 | 0.00 | 0.00 | 0.00 | 37 | 1025.7 |
| 20260508194557 | 60 | 42 | 1.0 | 6.0 | 0.00 | 0.00 | 0.00 | 36 | 1025.7 |
| 20260508193137 | 60 | 44 | 0.0 | 1.0 | 0.00 | 0.00 | 0.00 | 38 | 1025.7 |
| 20260508191603 | 60 | 29 | 0.0 | 1.0 | 0.00 | 0.00 | 0.00 | 37 | 1025.7 |
| 20260508190056 | 60 | 110 | 0.0 | 7.0 | 0.00 | 0.00 | 0.00 | 37 | 1025.7 |
| 20260508184555 | 61 | 4 | 0.0 | 6.0 | 0.00 | 0.00 | 0.00 | 37 | 1025.7 |
| 20260508183054 | 60 | 66 | 0.0 | 7.0 | 0.00 | 0.00 | 0.00 | 38 | 1025.7 |
| 20260508181555 | 60 | 8 | 0.0 | 5.0 | 0.00 | 0.00 | 0.00 | 40 | 1025.7 |
| 20260508180105 | 60 | 58 | 0.0 | 2.0 | 0.00 | 0.00 | 0.00 | 40 | 1025.7 |
| 20260508174602 | 61 | 54 | 0.0 | 8.0 | 0.00 | 0.00 | 0.00 | 38 | 1025.7 |
| 20260508173051 | 61 | 93 | 1.0 | 9.0 | 0.00 | 0.00 | 0.00 | 38 | 1025.7 |
| 20260508171551 | 60 | 75 | 1.0 | 6.0 | 0.00 | 0.00 | 0.00 | 42 | 1025.7 |
| 20260508170049 | 62 | 102 | 2.0 | 6.0 | 0.00 | 0.00 | 0.00 | 39 | 1025.7 |
| 20260508164550 | 62 | 150 | 0.0 | 6.0 | 0.00 | 0.00 | 0.00 | 38 | 1025.7 |
| 20260508163048 | 62 | 62 | 0.0 | 2.0 | 0.00 | 0.00 | 0.00 | 39 | 1025.7 |
| 20260508161546 | 62 | 34 | 0.0 | 4.0 | 0.00 | 0.00 | 0.00 | 38 | 1025.7 |
| 20260508160042 | 61 | 243 | 0.0 | 8.0 | 0.00 | 0.00 | 0.00 | 38 | 1025.7 |
| 20260508154541 | 59 | 51 | 0.0 | 6.0 | 0.00 | 0.00 | 0.00 | 39 | 1025.7 |
| 20260508153039 | 59 | 290 | 2.0 | 7.0 | 0.00 | 0.00 | 0.00 | 39 | 1025.7 |
| 20260508151538 | 60 | 29 | 0.0 | 0.0 | 0.00 | 0.00 | 0.00 | 38 | 1025.7 |
| 20260508150036 | 59 | 43 | 1.0 | 6.0 | 0.00 | 0.00 | 0.00 | 39 | 1025.7 |
| 20260508144534 | 60 | 56 | 1.0 | 6.0 | 0.00 | 0.00 | 0.00 | 38 | 1025.7 |
| 20260508143032 | 59 | 352 | 0.0 | 6.0 | 0.00 | 0.00 | 0.00 | 41 | 1025.7 |
| 20260508141528 | 59 | 139 | 0.0 | 5.0 | 0.00 | 0.00 | 0.00 | 40 | 1025.7 |
| 20260508140023 | 58 | 69 | 0.0 | 6.0 | 0.00 | 0.00 | 0.00 | 43 | 1025.7 |
| 20260508134518 | 57 | 14 | 0.0 | 4.0 | 0.00 | 0.00 | 0.00 | 42 | 1025.7 |
| 20260508133015 | 56 | 39 | 0.0 | 5.0 | 0.00 | 0.00 | 0.00 | 45 | 1025.7 |
| 20260508131510 | 55 | 65 | 1.0 | 6.0 | 0.00 | 0.00 | 0.00 | 47 | 1025.7 |
| 20260508130006 | 55 | 93 | 0.0 | 5.0 | 0.00 | 0.00 | 0.00 | 50 | 1025.7 |
| 20260508124502 | 53 | 57 | 0.0 | 1.0 | 0.00 | 0.00 | 0.00 | 55 | 1025.7 |
| 20260508123057 | 51 | 50 | 0.0 | 5.0 | 0.00 | 0.00 | 0.00 | 54 | 1025.7 |
| 20260508121554 | 50 | 26 | 0.0 | 2.0 | 0.00 | 0.00 | 0.00 | 58 | 1025.7 |
| 20260508120051 | 48 | 26 | 0.0 | 0.0 | 0.00 | 0.00 | 0.00 | 62 | 1025.7 |
| 20260508114602 | 45 | 26 | 0.0 | 0.0 | 0.00 | 0.00 | 0.00 | 71 | 1025.7 |
| 20260508113046 | 43 | 26 | 0.0 | 0.0 | 0.00 | 0.00 | 0.00 | 75 | 1025.7 |
| 20260508111557 | 41 | 26 | 0.0 | 0.0 | 0.00 | 0.00 | 0.00 | 79 | 1025.7 |
| 20260508110042 | 40 | 26 | 0.0 | 0.0 | 0.00 | 0.00 | 0.00 | 81 | 1025.7 |
| 20260508104541 | 40 | 26 | 0.0 | 0.0 | 0.00 | 0.00 | 0.00 | 82 | 1025.7 |
| 20260508103040 | 40 | 26 | 0.0 | 0.0 | 0.00 | 0.00 | 0.00 | 83 | 1025.7 |
| 20260508101539 | 39 | 26 | 0.0 | 0.0 | 0.00 | 0.00 | 0.00 | 84 | 1025.7 |
| 20260508100038 | 38 | 26 | 0.0 | 0.0 | 0.00 | 0.00 | 0.00 | 84 | 1025.7 |
| 20260508094537 | 38 | 26 | 0.0 | 0.0 | 0.00 | 0.00 | 0.00 | 84 | 1025.7 |
| 20260508093035 | 38 | 26 | 0.0 | 0.0 | 0.00 | 0.00 | 0.00 | 84 | 1025.7 |
| 20260508091543 | 38 | 26 | 0.0 | 0.0 | 0.00 | 0.00 | 0.00 | 86 | 1025.7 |
| 20260508090033 | 38 | 26 | 0.0 | 0.0 | 0.00 | 0.00 | 0.00 | 86 | 1025.7 |
| 20260508084532 | 38 | 26 | 0.0 | 0.0 | 0.00 | 0.00 | 0.00 | 85 | 1025.7 |
| 20260508083030 | 38 | 26 | 0.0 | 0.0 | 0.00 | 0.00 | 0.00 | 83 | 1025.7 |
| 20260508081537 | 39 | 26 | 0.0 | 0.0 | 0.00 | 0.00 | 0.00 | 83 | 1025.7 |
| 20260508080025 | 39 | 26 | 0.0 | 0.0 | 0.00 | 0.00 | 0.00 | 82 | 1025.7 |
| 20260508074526 | 40 | 26 | 0.0 | 0.0 | 0.00 | 0.00 | 0.00 | 81 | 1025.7 |
| 20260508073022 | 40 | 26 | 0.0 | 0.0 | 0.00 | 0.00 | 0.00 | 80 | 1025.7 |
| 20260508071520 | 40 | 26 | 0.0 | 0.0 | 0.00 | 0.00 | 0.00 | 78 | 1025.7 |
| 20260508070017 | 41 | 26 | 0.0 | 0.0 | 0.00 | 0.00 | 0.00 | 77 | 1025.7 |
| 20260508064524 | 41 | 26 | 0.0 | 0.0 | 0.00 | 0.00 | 0.00 | 75 | 1025.7 |
| 20260508063013 | 42 | 26 | 0.0 | 0.0 | 0.00 | 0.00 | 0.00 | 73 | 1025.7 |
| 20260508061510 | 43 | 26 | 0.0 | 0.0 | 0.00 | 0.00 | 0.00 | 74 | 1025.7 |
| 20260508060008 | 44 | 26 | 0.0 | 0.0 | 0.00 | 0.00 | 0.00 | 73 | 1025.7 |
| 20260508054509 | 44 | 26 | 0.0 | 0.0 | 0.00 | 0.00 | 0.00 | 73 | 1025.7 |
| 20260508053002 | 45 | 26 | 0.0 | 0.0 | 0.00 | 0.00 | 0.00 | 70 | 1025.7 |
| 20260508051607 | 45 | 26 | 0.0 | 0.0 | 0.00 | 0.00 | 0.00 | 69 | 1025.7 |
| 20260508050058 | 46 | 26 | 0.0 | 0.0 | 0.00 | 0.00 | 0.00 | 70 | 1025.7 |
| 20260508044555 | 47 | 26 | 0.0 | 0.0 | 0.00 | 0.00 | 0.00 | 69 | 1025.7 |
| 20260508043054 | 47 | 26 | 0.0 | 0.0 | 0.00 | 0.00 | 0.00 | 64 | 1025.7 |
| 20260508041550 | 48 | 26 | 0.0 | 0.0 | 0.00 | 0.00 | 0.00 | 64 | 1025.7 |
| 20260508040048 | 48 | 26 | 0.0 | 0.0 | 0.00 | 0.00 | 0.00 | 63 | 1025.7 |
| 20260508034550 | 48 | 26 | 0.0 | 0.0 | 0.00 | 0.00 | 0.00 | 62 | 1025.7 |
| 20260508033048 | 48 | 26 | 0.0 | 0.0 | 0.00 | 0.00 | 0.00 | 63 | 1025.7 |
| 20260508031545 | 48 | 26 | 0.0 | 0.0 | 0.00 | 0.00 | 0.00 | 62 | 1025.7 |
| 20260508030043 | 49 | 26 | 0.0 | 0.0 | 0.00 | 0.00 | 0.00 | 61 | 1025.7 |
| 20260508024554 | 49 | 26 | 0.0 | 0.0 | 0.00 | 0.00 | 0.00 | 59 | 1025.7 |
| 20260508023044 | 49 | 26 | 0.0 | 0.0 | 0.00 | 0.00 | 0.00 | 66 | 1025.7 |
| 20260508021542 | 49 | 26 | 0.0 | 0.0 | 0.00 | 0.00 | 0.00 | 58 | 1025.7 |
| 20260508020042 | 50 | 26 | 0.0 | 0.0 | 0.00 | 0.00 | 0.00 | 61 | 1025.7 |
| 20260508014541 | 50 | 26 | 0.0 | 0.0 | 0.00 | 0.00 | 0.00 | 61 | 1025.7 |
| 20260508013040 | 50 | 26 | 0.0 | 0.0 | 0.00 | 0.00 | 0.00 | 57 | 1025.7 |
| 20260508011540 | 51 | 26 | 0.0 | 0.0 | 0.00 | 0.00 | 0.00 | 56 | 1025.7 |
| 20260508010041 | 52 | 26 | 0.0 | 0.0 | 0.00 | 0.00 | 0.00 | 55 | 1025.7 |
| 20260508004542 | 53 | 26 | 0.0 | 0.0 | 0.00 | 0.00 | 0.00 | 57 | 1025.7 |
| 20260508003038 | 54 | 26 | 0.0 | 0.0 | 0.00 | 0.00 | 0.00 | 52 | 1025.7 |
| 20260508001539 | 56 | 26 | 0.0 | 0.0 | 0.00 | 0.00 | 0.00 | 44 | 1025.7 |
| 20260508000037 | 57 | 26 | 0.0 | 0.0 | 0.00 | 0.00 | 0.00 | 42 | 1025.7 |